TimeEDT,TemperatureF,Dew PointF,Humidity,Sea Level PressureIn,VisibilityMPH,Wind Direction,Wind SpeedMPH,Gust SpeedMPH,PrecipitationIn,Events,Conditions,WindDirDegrees,DateUTC
12:58 AM,70.0,68.7,96,30.03,10.0,East,4.6,-,N/A,,Mostly Cloudy,90,2013-08-15 04:58:00
1:03 AM,69.8,68.0,94,30.05,10.0,East,4.6,-,N/A,,Overcast,90,2013-08-15 05:03:00
1:53 AM,69.8,68.0,94,30.04,10.0,East,6.9,-,N/A,,Overcast,100,2013-08-15 05:53:00
1:58 AM,70.0,67.8,93,30.01,10.0,East,5.8,-,N/A,,Overcast,90,2013-08-15 05:58:00
2:19 AM,69.8,68.0,94,30.04,10.0,East,6.9,-,N/A,,Mostly Cloudy,80,2013-08-15 06:19:00
2:29 AM,69.8,68.0,94,30.03,10.0,East,4.6,-,N/A,,Mostly Cloudy,90,2013-08-15 06:29:00
2:44 AM,69.8,68.0,94,30.03,10.0,East,5.8,-,N/A,,Overcast,80,2013-08-15 06:44:00
2:58 AM,69.8,68.0,94,30.01,10.0,East,4.6,-,N/A,,Overcast,80,2013-08-15 06:58:00
3:58 AM,69.8,68.0,94,30.01,10.0,East,6.9,-,N/A,,Overcast,90,2013-08-15 07:58:00
4:23 AM,69.8,68.0,94,30.02,10.0,ENE,8.1,-,N/A,,Overcast,70,2013-08-15 08:23:00
4:53 AM,69.8,68.0,94,30.03,10.0,East,4.6,-,N/A,,Overcast,80,2013-08-15 08:53:00
4:58 AM,69.6,67.8,94,30.01,10.0,East,6.9,-,N/A,,Overcast,80,2013-08-15 08:58:00
5:58 AM,69.1,66.4,91,30.01,10.0,East,9.2,-,N/A,,Overcast,80,2013-08-15 09:58:00
6:28 AM,68.0,64.4,88,30.03,10.0,ENE,8.1,-,N/A,,Overcast,70,2013-08-15 10:28:00
6:58 AM,68.4,65.3,90,30.02,10.0,ENE,8.1,-,N/A,,Overcast,70,2013-08-15 10:58:00
7:58 AM,68.7,66.0,91,30.04,7.0,Variable,4.6,-,N/A,,Overcast,0,2013-08-15 11:58:00
8:58 AM,69.8,66.2,88,30.05,7.0,East,12.7,21.9,N/A,,Overcast,90,2013-08-15 12:58:00
9:33 AM,69.8,64.4,83,30.07,10.0,East,10.4,17.3,N/A,,Overcast,90,2013-08-15 13:33:00
9:58 AM,70.0,63.5,80,30.06,10.0,East,11.5,18.4,N/A,,Overcast,90,2013-08-15 13:58:00
10:58 AM,69.8,62.6,78,30.08,7.0,East,6.9,19.6,N/A,,Overcast,90,2013-08-15 14:58:00
11:58 AM,71.4,59.4,66,30.09,10.0,East,12.7,20.7,N/A,,Overcast,90,2013-08-15 15:58:00
12:58 PM,73.9,59.4,60,30.08,10.0,East,10.4,23.0,N/A,,Overcast,80,2013-08-15 16:58:00
1:58 PM,72.9,57.6,59,30.06,10.0,East,10.4,19.6,N/A,,Mostly Cloudy,80,2013-08-15 17:58:00
2:58 PM,73.8,57.9,58,30.04,10.0,Variable,6.9,-,N/A,,Mostly Cloudy,0,2013-08-15 18:58:00
3:58 PM,74.5,57.6,55,30.05,10.0,East,10.4,18.4,N/A,,Mostly Cloudy,90,2013-08-15 19:58:00
4:58 PM,73.0,58.1,59,30.04,10.0,East,11.5,-,N/A,,Mostly Cloudy,80,2013-08-15 20:58:00
5:58 PM,72.1,59.0,63,30.04,10.0,Variable,6.9,-,N/A,,Mostly Cloudy,0,2013-08-15 21:58:00
6:58 PM,70.9,59.4,67,30.05,10.0,East,8.1,-,N/A,,Overcast,80,2013-08-15 22:58:00
7:58 PM,70.0,58.8,68,30.05,10.0,East,8.1,-,N/A,,Overcast,90,2013-08-15 23:58:00
8:58 PM,69.1,59.7,72,30.07,10.0,ENE,4.6,-,N/A,,Overcast,70,2013-08-16 00:58:00
9:58 PM,68.7,59.9,73,30.08,10.0,ENE,9.2,-,N/A,,Overcast,70,2013-08-16 01:58:00
10:58 PM,68.5,58.5,70,30.08,10.0,East,11.5,-,N/A,,Overcast,100,2013-08-16 02:58:00
11:58 PM,68.2,59.0,72,30.09,10.0,East,9.2,-,N/A,,Overcast,100,2013-08-16 03:58:00